Location: Navarre
(52.9016°N, 113.4144°W)
Time: 12:04:17
(UTC+00:00)

Envisat - Pass Details

Date: 09 December 2021
Orbit: 764 x 766 km, 98.2° (Epoch: 23 January)

Event Time Altitude Azimuth Distance (km) Brightness Sun altitude
Rises 14:03:35 0° 8° (N) 3,248 6.1 -12.7°
Reaches altitude 10° 14:06:10 10° 357° (N) 2,317 5.3 -12.3°
Maximum altitude 14:10:25 28° 301° (WNW) 1,425 3.8 -11.7°
Drops below altitude 10° 14:14:40 10° 244° (WSW) 2,303 5.1 -11.1°
Sets 14:17:15 0° 233° (SW) 3,225 5.9 -10.8°
